| time (UTC) | temp F | wind direction | speed knots | gust knots | rain 1hr in | rain 24hr in | rain mn in | humidity % | barometer mb |
| 20260903232517 | 84 | 90 | 1.7 | 3.5 | 0.00 | 0.07 | 0.07 | 78 | 1007.2 |
| 20260903231517 | 84 | 68 | 2.6 | 7.0 | 0.00 | 0.07 | 0.07 | 76 | 1007.1 |
| 20260903230516 | 85 | 90 | 5.2 | 8.7 | 0.00 | 0.07 | 0.07 | 75 | 1007.2 |
| 20260903225537 | 86 | 90 | 6.1 | 9.6 | 0.00 | 0.07 | 0.07 | 73 | 1007.6 |
| 20260903224516 | 87 | 90 | 6.1 | 9.6 | 0.00 | 0.07 | 0.07 | 71 | 1007.4 |
| 20260903223517 | 87 | 90 | 6.1 | 10.4 | 0.00 | 0.07 | 0.07 | 71 | 1007.5 |
| 20260903222517 | 87 | 90 | 4.3 | 10.4 | 0.00 | 0.07 | 0.07 | 70 | 1007.1 |
| 20260903221517 | 87 | 90 | 5.2 | 9.6 | 0.00 | 0.07 | 0.07 | 71 | 1006.9 |
| 20260903220537 | 86 | 90 | 6.1 | 9.6 | 0.00 | 0.07 | 0.07 | 71 | 1006.6 |
| 20260903215516 | 88 | 68 | 2.6 | 7.0 | 0.00 | 0.07 | 0.07 | 71 | 1006.4 |
| 20260903214557 | 88 | 68 | 3.5 | 7.8 | 0.00 | 0.07 | 0.07 | 70 | 1006.6 |
| 20260903213517 | 88 | 90 | 4.3 | 7.8 | 0.00 | 0.07 | 0.07 | 69 | 1006.7 |
| 20260903212536 | 88 | 90 | 5.2 | 13.0 | 0.00 | 0.07 | 0.07 | 67 | 1007.0 |
| 20260903211556 | 89 | 90 | 6.1 | 8.7 | 0.00 | 0.07 | 0.07 | 66 | 1007.2 |
| 20260903210537 | 88 | 90 | 7.0 | 11.3 | 0.00 | 0.07 | 0.07 | 67 | 1007.6 |
| 20260903205537 | 88 | 90 | 7.0 | 10.4 | 0.00 | 0.07 | 0.07 | 67 | 1007.6 |
| 20260903204536 | 87 | 90 | 7.8 | 11.3 | 0.00 | 0.07 | 0.07 | 67 | 1007.7 |
| 20260903203516 | 86 | 90 | 7.0 | 12.2 | 0.00 | 0.07 | 0.07 | 68 | 1007.5 |
| 20260903202516 | 86 | 90 | 5.2 | 10.4 | 0.00 | 0.07 | 0.07 | 68 | 1007.5 |
| 20260903201516 | 87 | 90 | 7.8 | 16.5 | 0.00 | 0.07 | 0.07 | 65 | 1007.5 |
| 20260903200517 | 88 | 90 | 7.8 | 13.9 | 0.00 | 0.07 | 0.07 | 65 | 1007.9 |
| 20260903195516 | 89 | 90 | 8.7 | 15.6 | 0.00 | 0.07 | 0.07 | 63 | 1007.5 |
| 20260903194517 | 89 | 90 | 10.4 | 17.4 | 0.00 | 0.07 | 0.07 | 62 | 1007.8 |
| 20260903193516 | 88 | 90 | 7.8 | 13.9 | 0.00 | 0.07 | 0.07 | 66 | 1007.6 |
| 20260903192518 | 89 | 90 | 7.8 | 13.0 | 0.00 | 0.07 | 0.07 | 64 | 1007.5 |
| 20260903191517 | 89 | 90 | 11.3 | 18.2 | 0.00 | 0.07 | 0.07 | 62 | 1007.6 |
| 20260903190516 | 88 | 90 | 10.4 | 16.5 | 0.00 | 0.07 | 0.07 | 63 | 1007.7 |
| 20260903185516 | 88 | 90 | 11.3 | 22.6 | 0.00 | 0.07 | 0.07 | 64 | 1007.9 |
| 20260903184516 | 87 | 90 | 10.4 | 20.9 | 0.00 | 0.07 | 0.07 | 65 | 1007.7 |
| 20260903183516 | 88 | 90 | 10.4 | 16.5 | 0.00 | 0.07 | 0.07 | 65 | 1008.0 |
| 20260903182517 | 88 | 90 | 9.6 | 17.4 | 0.00 | 0.07 | 0.07 | 66 | 1008.0 |
| 20260903181516 | 87 | 90 | 8.7 | 16.5 | 0.00 | 0.07 | 0.07 | 67 | 1008.2 |
| 20260903180516 | 86 | 90 | 9.6 | 14.8 | 0.00 | 0.07 | 0.07 | 69 | 1008.4 |
| 20260903175516 | 85 | 90 | 7.8 | 11.3 | 0.00 | 0.07 | 0.07 | 71 | 1008.3 |
| 20260903174537 | 84 | 90 | 9.6 | 15.6 | 0.00 | 0.07 | 0.07 | 73 | 1008.3 |
| 20260903173516 | 83 | 90 | 7.0 | 13.9 | 0.00 | 0.07 | 0.07 | 74 | 1008.4 |
| 20260903172516 | 82 | 90 | 7.8 | 11.3 | 0.00 | 0.07 | 0.07 | 74 | 1008.4 |
| 20260903171516 | 80 | 90 | 8.7 | 13.9 | 0.00 | 0.07 | 0.07 | 75 | 1008.4 |
| 20260903170516 | 82 | 90 | 6.1 | 13.0 | 0.01 | 0.07 | 0.07 | 74 | 1008.5 |
| 20260903165516 | 83 | 90 | 7.8 | 13.9 | 0.01 | 0.07 | 0.07 | 72 | 1008.7 |
| 20260903164516 | 82 | 90 | 7.8 | 15.6 | 0.01 | 0.07 | 0.07 | 74 | 1008.7 |
| 20260903163557 | 82 | 90 | 7.0 | 13.0 | 0.01 | 0.08 | 0.07 | 73 | 1008.7 |
| 20260903162536 | 80 | 90 | 5.2 | 10.4 | 0.01 | 0.08 | 0.07 | 75 | 1008.6 |
| 20260903161516 | 83 | 90 | 7.0 | 13.9 | 0.01 | 0.08 | 0.07 | 71 | 1008.8 |
| 20260903160516 | 83 | 90 | 8.7 | 17.4 | 0.00 | 0.07 | 0.06 | 71 | 1008.9 |
| 20260903155517 | 83 | 90 | 9.6 | 18.2 | 0.00 | 0.07 | 0.06 | 72 | 1009.0 |
| 20260903154516 | 82 | 90 | 7.0 | 13.9 | 0.00 | 0.07 | 0.06 | 74 | 1008.9 |
| 20260903153516 | 82 | 90 | 7.8 | 14.8 | 0.00 | 0.07 | 0.06 | 76 | 1009.0 |
| 20260903152516 | 81 | 90 | 6.1 | 16.5 | 0.00 | 0.07 | 0.06 | 77 | 1009.0 |
| 20260903151536 | 80 | 90 | 7.0 | 13.9 | 0.00 | 0.07 | 0.06 | 79 | 1008.9 |
| 20260903150536 | 79 | 68 | 4.3 | 10.4 | 0.00 | 0.07 | 0.06 | 81 | 1009.1 |
| 20260903145516 | 79 | 90 | 5.2 | 9.6 | 0.00 | 0.08 | 0.06 | 82 | 1009.2 |
| 20260903144516 | 78 | 90 | 5.2 | 13.0 | 0.00 | 0.08 | 0.06 | 82 | 1009.3 |
| 20260903143516 | 78 | 90 | 5.2 | 10.4 | 0.00 | 0.08 | 0.06 | 82 | 1009.5 |
| 20260903142516 | 78 | 68 | 3.5 | 7.8 | 0.00 | 0.08 | 0.06 | 81 | 1009.2 |
| 20260903141516 | 77 | 68 | 2.6 | 8.7 | 0.00 | 0.08 | 0.06 | 82 | 1009.1 |
| 20260903140516 | 77 | 68 | 2.6 | 7.0 | 0.00 | 0.08 | 0.06 | 81 | 1009.0 |
| 20260903135556 | 76 | 68 | 2.6 | 8.7 | 0.01 | 0.08 | 0.06 | 81 | 1009.0 |
| 20260903134516 | 75 | 68 | 1.7 | 8.7 | 0.01 | 0.08 | 0.06 | 83 | 1008.9 |
| 20260903133516 | 74 | 68 | 1.7 | 3.5 | 0.01 | 0.08 | 0.06 | 84 | 1009.0 |
| 20260903132516 | 73 | 68 | 1.7 | 5.2 | 0.01 | 0.09 | 0.06 | 86 | 1009.0 |
| 20260903131516 | 73 | 68 | 1.7 | 4.3 | 0.01 | 0.09 | 0.06 | 86 | 1009.1 |
| 20260903130536 | 73 | 68 | 1.7 | 4.3 | 0.01 | 0.09 | 0.06 | 86 | 1009.1 |
| 20260903125517 | 73 | 90 | 1.7 | 5.2 | 0.00 | 0.08 | 0.05 | 87 | 1009.2 |
| 20260903124516 | 73 | 45 | 1.7 | 3.5 | 0.00 | 0.08 | 0.05 | 87 | 1009.2 |
| 20260903123516 | 73 | 68 | 1.7 | 6.1 | 0.01 | 0.08 | 0.05 | 88 | 1009.0 |
| 20260903122516 | 73 | 45 | 2.6 | 4.3 | 0.01 | 0.08 | 0.05 | 87 | 1009.0 |
| 20260903121516 | 72 | 68 | 1.7 | 4.3 | 0.01 | 0.08 | 0.05 | 87 | 1009.1 |
| 20260903120516 | 72 | 90 | 2.6 | 7.0 | 0.01 | 0.09 | 0.05 | 88 | 1009.0 |
| 20260903115517 | 71 | 45 | 1.7 | 2.6 | 0.01 | 0.09 | 0.05 | 89 | 1008.8 |
| 20260903114516 | 71 | 68 | 0.9 | 4.3 | 0.01 | 0.09 | 0.05 | 90 | 1008.8 |
| 20260903113516 | 71 | 68 | 2.6 | 7.0 | 0.00 | 0.08 | 0.04 | 89 | 1009.0 |
| 20260903112516 | 71 | 90 | 1.7 | 4.3 | 0.01 | 0.08 | 0.04 | 89 | 1009.2 |
| 20260903111516 | 71 | 68 | 1.7 | 3.5 | 0.01 | 0.09 | 0.04 | 90 | 1008.9 |
| 20260903110516 | 70 | 68 | 1.7 | 5.2 | 0.01 | 0.09 | 0.04 | 91 | 1008.7 |
| 20260903105536 | 70 | 68 | 0.9 | 2.6 | 0.02 | 0.09 | 0.04 | 91 | 1009.1 |
| 20260903104516 | 70 | 45 | 0.9 | 2.6 | 0.02 | 0.10 | 0.04 | 92 | 1009.4 |
| 20260903103516 | 70 | 0.0 | 1.7 | 0.03 | 0.10 | 0.04 | 91 | 1009.5 | |
| 20260903102516 | 71 | 90 | 0.9 | 1.7 | 0.03 | 0.09 | 0.03 | 90 | 1009.5 |
| 20260903101516 | 71 | 68 | 2.6 | 7.8 | 0.03 | 0.10 | 0.03 | 90 | 1009.3 |
| 20260903100516 | 71 | 90 | 3.5 | 7.8 | 0.03 | 0.10 | 0.03 | 90 | 1009.4 |
| 20260903095556 | 71 | 90 | 2.6 | 7.0 | 0.02 | 0.10 | 0.02 | 92 | 1009.5 |
| 20260903094516 | 72 | 68 | 1.7 | 7.0 | 0.02 | 0.10 | 0.02 | 91 | 1009.4 |
| 20260903093516 | 74 | 90 | 5.2 | 8.7 | 0.01 | 0.10 | 0.01 | 88 | 1009.8 |
| 20260903092516 | 75 | 90 | 0.9 | 2.6 | 0.00 | 0.10 | 0.00 | 89 | 1010.1 |
| 20260903091516 | 75 | 90 | 2.6 | 7.8 | 0.00 | 0.10 | 0.00 | 90 | 1010.0 |
| 20260903090516 | 75 | 90 | 5.2 | 7.8 | 0.00 | 0.11 | 0.00 | 92 | 1010.4 |
| 20260903085516 | 75 | 90 | 4.3 | 7.0 | 0.00 | 0.12 | 0.00 | 93 | 1010.1 |
| 20260903084516 | 74 | 90 | 2.6 | 6.1 | 0.00 | 0.13 | 0.00 | 94 | 1010.1 |
| 20260903083515 | 74 | 90 | 3.5 | 7.8 | 0.00 | 0.15 | 0.00 | 94 | 1010.0 |
| 20260903082516 | 74 | 90 | 3.5 | 6.1 | 0.00 | 0.16 | 0.00 | 95 | 1010.1 |
| 20260903081516 | 74 | 90 | 3.5 | 6.1 | 0.00 | 0.17 | 0.00 | 95 | 1009.9 |
| 20260903080515 | 74 | 0.0 | 0.0 | 0.00 | 0.19 | 0.00 | 95 | 1009.3 | |
| 20260903075516 | 74 | 0.0 | 0.0 | 0.00 | 0.21 | 0.00 | 95 | 1009.5 | |
| 20260903074516 | 74 | 0.0 | 0.0 | 0.00 | 0.23 | 0.00 | 95 | 1009.5 | |
| 20260903073515 | 74 | 0.0 | 0.0 | 0.00 | 0.25 | 0.00 | 95 | 1009.5 | |
| 20260903072515 | 74 | 0.0 | 0.0 | 0.00 | 0.27 | 0.00 | 95 | 1009.6 | |
| 20260903071516 | 74 | 0.0 | 0.0 | 0.00 | 0.29 | 0.00 | 95 | 1009.7 | |
| 20260903070517 | 74 | 0.0 | 0.0 | 0.00 | 0.32 | 0.00 | 95 | 1009.7 | |
| 20260903065516 | 74 | 0.0 | 0.0 | 0.00 | 0.35 | 0.00 | 94 | 1009.7 | |
| 20260903064518 | 74 | 0.0 | 0.0 | 0.00 | 0.39 | 0.00 | 95 | 1009.8 | |
| 20260903063516 | 74 | 0.0 | 0.0 | 0.00 | 0.42 | 0.00 | 95 | 1009.8 | |
| 20260903062517 | 74 | 0.0 | 0.0 | 0.00 | 0.46 | 0.00 | 95 | 1009.7 | |
| 20260903061516 | 74 | 0.0 | 0.0 | 0.00 | 0.50 | 0.00 | 94 | 1009.6 | |
| 20260903060518 | 74 | 0.0 | 0.0 | 0.00 | 0.54 | 0.00 | 94 | 1009.5 | |
| 20260903055518 | 74 | 0.0 | 0.0 | 0.00 | 0.58 | 0.00 | 94 | 1009.6 | |
| 20260903054516 | 74 | 0.0 | 0.0 | 0.00 | 0.62 | 0.00 | 94 | 1009.6 | |
| 20260903053517 | 75 | 0.0 | 0.0 | 0.00 | 0.66 | 0.00 | 94 | 1009.8 | |
| 20260903052517 | 75 | 0.0 | 0.0 | 0.00 | 0.70 | 0.00 | 93 | 1009.8 | |
| 20260903051517 | 75 | 0.0 | 0.0 | 0.00 | 0.76 | 0.00 | 93 | 1009.8 | |
| 20260903050517 | 75 | 0.0 | 0.0 | 0.00 | 0.83 | 0.00 | 92 | 1009.9 | |
| 20260903045516 | 75 | 0.0 | 0.0 | 0.00 | 0.88 | 0.86 | 92 | 1009.8 | |
| 20260903044515 | 76 | 0.0 | 0.0 | 0.00 | 0.91 | 0.86 | 92 | 1009.8 | |
| 20260903043516 | 76 | 0.0 | 0.0 | 0.00 | 0.96 | 0.86 | 92 | 1009.9 | |
| 20260903042536 | 76 | 0.0 | 0.0 | 0.00 | 1.07 | 0.86 | 92 | 1009.8 | |
| 20260903041516 | 76 | 0.0 | 0.0 | 0.00 | 1.09 | 0.86 | 92 | 1009.9 | |
| 20260903040516 | 76 | 0.0 | 0.0 | 0.00 | 1.09 | 0.86 | 91 | 1009.8 | |
| 20260903035536 | 76 | 0.0 | 0.0 | 0.00 | 1.09 | 0.86 | 91 | 1010.0 | |
| 20260903034516 | 77 | 0.0 | 0.0 | 0.00 | 1.09 | 0.86 | 91 | 1010.0 | |
| 20260903033515 | 77 | 0.0 | 0.0 | 0.00 | 1.09 | 0.86 | 90 | 1010.1 | |
| 20260903032515 | 77 | 0.0 | 0.0 | 0.00 | 1.09 | 0.86 | 90 | 1010.1 | |
| 20260903031516 | 77 | 0.0 | 0.0 | 0.00 | 1.09 | 0.86 | 90 | 1010.0 | |
| 20260903030538 | 77 | 0.0 | 0.0 | 0.00 | 1.09 | 0.86 | 89 | 1010.0 | |
| 20260903025518 | 77 | 0.0 | 0.0 | 0.00 | 1.09 | 0.86 | 89 | 1010.0 | |
| 20260903024517 | 77 | 0.0 | 0.9 | 0.00 | 1.09 | 0.86 | 88 | 1010.0 | |
| 20260903023518 | 78 | 0.0 | 0.9 | 0.00 | 1.09 | 0.86 | 88 | 1009.9 | |
| 20260903022518 | 78 | 0.0 | 0.9 | 0.00 | 1.09 | 0.86 | 88 | 1009.9 | |
| 20260903021517 | 78 | 0.0 | 0.0 | 0.00 | 1.09 | 0.86 | 87 | 1009.8 | |
| 20260903020517 | 79 | 0.0 | 0.0 | 0.00 | 1.09 | 0.86 | 86 | 1009.9 | |
| 20260903015518 | 79 | 0.0 | 0.0 | 0.00 | 1.09 | 0.86 | 86 | 1009.7 | |
| 20260903014517 | 79 | 0.0 | 0.0 | 0.00 | 1.09 | 0.86 | 85 | 1009.6 | |
| 20260903013517 | 79 | 0.0 | 0.0 | 0.00 | 1.09 | 0.86 | 84 | 1009.5 | |
| 20260903012538 | 80 | 0.0 | 0.0 | 0.00 | 1.09 | 0.86 | 84 | 1009.4 | |
| 20260903011516 | 80 | 0.0 | 0.0 | 0.00 | 1.09 | 0.86 | 83 | 1009.4 | |
| 20260903010517 | 81 | 0.0 | 0.0 | 0.00 | 1.09 | 0.86 | 82 | 1009.3 | |
| 20260903005517 | 81 | 0.0 | 0.0 | 0.00 | 1.09 | 0.86 | 81 | 1009.2 | |
| 20260903004537 | 82 | 0.0 | 0.9 | 0.00 | 1.09 | 0.86 | 79 | 1009.3 | |
| 20260903003517 | 82 | 0.0 | 0.0 | 0.00 | 1.09 | 0.86 | 78 | 1009.4 | |
| 20260903002517 | 83 | 0.0 | 0.9 | 0.00 | 1.09 | 0.86 | 77 | 1009.5 | |
| 20260903001517 | 83 | 0.0 | 1.7 | 0.00 | 1.09 | 0.86 | 76 | 1009.4 | |
| 20260903000537 | 84 | 0.0 | 0.9 | 0.00 | 1.09 | 0.86 | 75 | 1009.6 | |
| 20260902235518 | 85 | 45 | 0.9 | 1.7 | 0.00 | 1.09 | 0.86 | 72 | 1009.6 |
| 20260902234517 | 85 | 0.0 | 2.6 | 0.00 | 1.09 | 0.86 | 71 | 1009.7 | |
| 20260902233517 | 85 | 68 | 0.9 | 1.7 | 0.00 | 1.09 | 0.86 | 70 | 1009.5 |